EW1675 Weather Reports


time (UTC)temp
F
wind
direction
speed
knots
gust
knots
rain 1hr
in
rain 24hr
in
rain mn
in
humidity
%
barometer
mb
20260906183002 83 319 1.7 6.1 0.00 0.00 0.00 57 1015.2
20260906182002 82 299 0.0 1.7 0.00 0.00 0.00 61 1015.2
20260906181002 82 323 1.7 7.8 0.00 0.00 0.00 54 1015.3
20260906180023 82 335 0.9 5.2 0.00 0.00 0.00 56 1015.3
20260906175023 82 3 1.7 5.2 0.00 0.00 0.00 56 1015.4
20260906174044 82 7 0.9 2.6 0.00 0.00 0.00 58 1015.5
20260906173023 82 357 1.7 7.0 0.00 0.00 0.00 55 1015.5
20260906172023 82 330 1.7 4.3 0.00 0.00 0.00 57 1015.7
20260906171023 82 275 0.9 3.5 0.00 0.00 0.00 61 1015.7
20260906170023 81 351 0.9 3.5 0.00 0.00 0.00 58 1015.7
20260906165002 82 307 0.9 5.2 0.00 0.00 0.00 65 1015.8
20260906164002 81 325 1.7 7.0 0.00 0.00 0.00 59 1015.7
20260906163002 81 329 1.7 5.2 0.00 0.00 0.00 60 1015.8
20260906162044 81 346 0.9 5.2 0.00 0.00 0.00 61 1015.9
20260906161023 80 310 1.7 7.8 0.00 0.00 0.00 64 1015.9
20260906160023 80 310 0.9 6.1 0.00 0.00 0.00 63 1015.9
20260906155105 80 314 0.9 5.2 0.00 0.00 0.00 66 1015.8
20260906154002 79 266 0.9 5.2 0.00 0.00 0.00 66 1015.9
20260906153044 78 347 1.7 7.8 0.00 0.00 0.00 69 1015.8
20260906152044 78 348 1.7 4.3 0.00 0.00 0.00 69 1015.9
20260906151003 78 340 1.7 4.3 0.00 0.00 0.00 69 1016.0
20260906150045 77 345 1.7 4.3 0.00 0.00 0.00 69 1016.0
20260906145044 77 337 0.9 4.3 0.00 0.00 0.00 70 1015.9
20260906144003 76 309 0.9 2.6 0.00 0.00 0.00 70 1015.8
20260906143023 76 339 0.9 4.3 0.00 0.00 0.00 74 1015.9
20260906142045 75 348 0.9 4.3 0.00 0.00 0.00 72 1015.9
20260906141002 74 322 1.7 6.1 0.00 0.00 0.00 75 1015.8
20260906140045 73 331 0.9 2.6 0.00 0.00 0.00 77 1015.7
20260906135105 72 330 0.9 3.5 0.00 0.00 0.00 79 1015.7
20260906134024 72 348 0.9 3.5 0.00 0.00 0.00 80 1015.7
20260906133023 71 343 1.7 4.3 0.00 0.00 0.00 81 1015.7
20260906132044 70 299 0.9 2.6 0.00 0.00 0.00 83 1015.7
20260906131003 68 286 0.9 1.7 0.00 0.00 0.00 86 1015.7
20260906130003 67 340 0.9 4.3 0.00 0.00 0.00 89 1015.8
20260906125003 66 298 0.9 2.6 0.00 0.00 0.00 93 1015.6
20260906124003 65 296 0.0 0.9 0.00 0.00 0.00 95 1015.7
20260906123024 64 8 0.9 2.6 0.00 0.00 0.00 95 1015.6
20260906122024 63 57 0.0 1.7 0.00 0.00 0.00 95 1015.5
20260906121003 63 60 0.0 1.7 0.00 0.00 0.00 95 1015.5
20260906120003 62 66 0.0 1.7 0.00 0.00 0.00 95 1015.3
20260906115003 62 0 0.0 0.0 0.00 0.00 0.00 95 1015.1
20260906114003 62 0 0.0 0.0 0.00 0.00 0.00 95 1015.0
20260906113024 61 0 0.0 0.0 0.00 0.00 0.00 94 1015.1
20260906112106 62 0 0.0 0.0 0.00 0.00 0.00 94 1015.0
20260906111106 62 0 0.0 0.0 0.00 0.00 0.00 94 1014.8
20260906110003 62 0 0.0 0.0 0.00 0.00 0.00 94 1014.8
20260906105024 62 0 0.0 0.0 0.00 0.00 0.00 94 1014.5
20260906104106 62 0 0.0 0.0 0.00 0.00 0.00 94 1014.3
20260906103024 62 0 0.0 0.0 0.00 0.00 0.00 94 1014.2
20260906102003 62 0 0.0 0.0 0.00 0.00 0.00 93 1014.1
20260906101024 62 0 0.0 0.0 0.00 0.00 0.00 93 1014.0
20260906100003 62 0 0.0 0.0 0.00 0.00 0.00 93 1013.9
20260906095045 62 0 0.0 0.0 0.00 0.00 0.00 93 1013.8
20260906094021 62 0 0.0 0.0 0.00 0.00 0.00 93 1013.7
20260906093001 62 0 0.0 0.0 0.00 0.00 0.00 93 1013.7
20260906092001 62 0 0.0 0.0 0.00 0.00 0.00 93 1013.6
20260906091000 62 0 0.0 0.0 0.00 0.00 0.00 93 1013.4
20260906090001 62 0 0.0 0.0 0.00 0.00 0.00 93 1013.4
20260906085000 63 0 0.0 0.0 0.00 0.00 0.00 93 1013.3
20260906084000 63 0 0.0 0.0 0.00 0.00 0.00 93 1013.2
20260906083001 63 0 0.0 0.0 0.00 0.00 0.00 93 1013.2
20260906082022 63 0 0.0 0.0 0.00 0.00 0.00 92 1013.2
20260906081022 63 0 0.0 0.0 0.00 0.00 0.00 93 1013.1
20260906080001 63 0 0.0 0.0 0.00 0.00 0.00 92 1013.1
20260906075022 63 0 0.0 0.0 0.00 0.00 0.00 92 1013.1
20260906074001 64 0 0.0 0.0 0.00 0.00 0.00 92 1013.0
20260906073022 64 0 0.0 0.0 0.00 0.00 0.00 92 1013.1
20260906072022 64 0 0.0 0.0 0.00 0.00 0.00 92 1013.0
20260906071001 64 0 0.0 0.0 0.00 0.00 0.00 92 1013.0
20260906070001 64 0 0.0 0.0 0.00 0.00 0.00 92 1012.9
20260906065001 64 0 0.0 0.0 0.00 0.00 0.00 91 1013.0
20260906064001 65 0 0.0 0.0 0.00 0.00 0.00 91 1012.9
20260906063104 65 0 0.0 0.0 0.00 0.00 0.00 91 1012.9
20260906062001 65 0 0.0 0.0 0.00 0.00 0.00 90 1012.9
20260906061022 66 0 0.0 0.0 0.00 0.00 0.00 90 1013.0
20260906060001 66 0 0.0 0.0 0.00 0.00 0.00 90 1013.0
20260906055001 66 0 0.0 0.0 0.00 0.00 0.00 90 1013.0
20260906054001 67 0 0.0 0.0 0.00 0.00 0.00 90 1012.9
20260906053022 67 0 0.0 0.0 0.00 0.00 0.00 89 1013.0
20260906052043 68 0 0.0 0.0 0.00 0.00 0.00 89 1013.0
20260906051104 68 0 0.0 0.0 0.00 0.00 0.00 88 1013.2
20260906050001 68 0 0.0 0.0 0.00 0.00 0.00 88 1013.1
20260906045001 69 0 0.0 0.0 0.00 0.00 0.00 88 1013.2
20260906044043 69 0 0.0 0.0 0.00 0.00 0.00 87 1013.3
20260906043001 70 0 0.0 0.0 0.00 0.00 0.00 86 1013.4
20260906042022 70 0 0.0 0.0 0.00 0.00 0.00 86 1013.5
20260906041022 71 0 0.0 0.0 0.00 0.00 0.00 85 1013.5
20260906040023 71 0 0.0 0.0 0.00 0.00 0.00 85 1013.5
20260906035001 72 0 0.0 0.0 0.00 0.00 0.00 84 1013.5
20260906034001 72 0 0.0 0.0 0.00 0.00 0.00 84 1013.3
20260906033022 72 0 0.0 0.0 0.00 0.00 0.00 83 1013.4
20260906032043 73 0 0.0 0.0 0.00 0.00 0.00 83 1013.4
20260906031044 73 0 0.0 0.0 0.00 0.00 0.00 84 1013.4
20260906030001 73 0 0.0 0.0 0.00 0.00 0.00 84 1013.4
20260906025022 73 0 0.0 0.0 0.00 0.00 0.00 84 1013.2
20260906024022 73 0 0.0 0.0 0.00 0.00 0.00 84 1013.1
20260906023001 73 0 0.0 0.0 0.00 0.00 0.00 84 1013.1
20260906022001 73 0 0.0 0.0 0.00 0.00 0.00 84 1013.0
20260906021022 73 0 0.0 0.0 0.00 0.00 0.00 84 1013.0
20260906020022 73 0 0.0 0.0 0.00 0.00 0.00 84 1013.1
20260906015022 73 0 0.0 0.0 0.00 0.00 0.00 85 1012.9
20260906014001 74 0 0.0 0.0 0.00 0.00 0.00 87 1012.6
20260906013001 74 0 0.0 0.0 0.00 0.00 0.00 88 1012.6
20260906012001 74 0 0.0 0.0 0.00 0.00 0.00 88 1012.6
20260906011001 74 0 0.0 0.0 0.00 0.00 0.00 87 1012.5
20260906010043 75 0 0.0 0.0 0.00 0.00 0.00 87 1012.3
20260906005022 75 0 0.0 0.0 0.00 0.00 0.00 86 1012.1
20260906004001 75 0 0.0 0.0 0.00 0.00 0.00 85 1012.0
20260906003002 76 0 0.0 0.0 0.00 0.00 0.00 85 1011.8
20260906002002 76 0 0.0 0.0 0.00 0.00 0.00 85 1011.8
20260906001002 76 0 0.0 0.0 0.00 0.00 0.00 84 1011.8
20260906000002 76 0 0.0 0.0 0.00 0.00 0.00 84 1011.9
20260905235043 77 0 0.0 0.0 0.00 0.00 0.00 83 1011.8
20260905234002 77 0 0.0 0.0 0.00 0.00 0.00 82 1011.9
20260905233002 77 0 0.0 0.0 0.00 0.00 0.00 81 1011.7
20260905232022 78 0 0.0 0.0 0.00 0.00 0.00 80 1011.6
20260905231002 78 0 0.0 0.0 0.00 0.00 0.00 79 1011.6
20260905230023 79 0 0.0 0.0 0.00 0.00 0.00 78 1011.6
20260905225001 79 0 0.0 0.0 0.00 0.00 0.00 77 1011.7
20260905224002 79 0 0.0 0.0 0.00 0.00 0.00 76 1011.5
20260905223044 79 0 0.0 0.0 0.00 0.00 0.00 77 1011.5
20260905222023 80 0 0.0 0.0 0.00 0.00 0.00 77 1011.4
20260905221002 80 95 0.0 1.7 0.00 0.00 0.00 76 1011.4
20260905220044 80 99 0.0 0.9 0.00 0.00 0.00 77 1011.4
20260905215023 80 0 0.0 0.0 0.00 0.00 0.00 77 1011.4
20260905214044 80 99 0.0 0.9 0.00 0.00 0.00 77 1011.1
20260905213002 80 0 0.0 0.0 0.00 0.00 0.00 75 1011.1
20260905212023 81 99 0.0 1.7 0.00 0.00 0.00 74 1011.0
20260905211002 81 0 0.0 0.0 0.00 0.00 0.00 74 1010.7
20260905210002 81 96 0.0 0.9 0.00 0.01 0.00 74 1010.6
20260905205002 82 338 0.9 3.5 0.00 0.02 0.00 73 1010.8
20260905204023 82 332 0.0 0.9 0.00 0.08 0.00 74 1011.0
20260905203002 82 335 0.0 2.6 0.00 0.09 0.00 73 1010.7
20260905202002 82 349 0.9 4.3 0.00 0.11 0.00 72 1010.9
20260905201023 82 321 0.9 3.5 0.00 0.11 0.00 71 1010.9
20260905200002 82 308 0.0 1.7 0.00 0.11 0.00 73 1011.1
20260905195002 82 302 0.0 2.6 0.00 0.11 0.00 71 1011.2
20260905194002 82 300 0.9 3.5 0.00 0.11 0.00 73 1011.2
20260905193002 82 334 0.9 5.2 0.00 0.11 0.00 75 1011.2
20260905192023 81 333 0.0 4.3 0.00 0.11 0.00 73 1011.2
20260905191002 81 336 0.0 0.9 0.00 0.11 0.00 76 1011.3
20260905190002 81 5 0.9 1.7 0.00 0.11 0.00 77 1011.4
20260905185044 81 339 0.9 3.5 0.00 0.11 0.00 75 1011.5
20260905184023 81 327 0.0 1.7 0.00 0.11 0.00 76 1011.5